Weather History for Stanley, ND

Change the Weather History Date:

Thursday, September 26, 2013

  Actual Average (KMOT) Record (KMOT)
Temperature  
Mean Temperature 50 °F 53 °F  
Max Temperature 55 °F 65 °F 91 °F (1963)
Min Temperature 46 °F 42 °F 4 °F (1919)
Degree Days  
Heating Degree Days 14 12  
Month to date heating degree days 198  
Since 1 July heating degree days 269  
Cooling Degree Days 0 0  
Month to date cooling degree days 30  
Year to date cooling degree days 441  
Moisture  
Dew Point 50 °F    
Average Humidity 94    
Maximum Humidity 100    
Minimum Humidity 72    
Precipitation  
Precipitation 0.07 in 0.05 in 0.79 in (1964)
Month to date precipitation 1.28  
Year to date precipitation 14.72  
Sea Level Pressure  
Sea Level Pressure 29.67 in    
Wind  
Wind Speed 12 mph (WNW)    
Max Wind Speed 28 mph    
Max Gust Speed 39 mph    
Visibility 9 miles    
Events Rain , Thunderstorm    
T = Trace of Precipitation, MM = Missing Value Source: NWS Daily Summary

Daily Weather History Graph

Daily Weather History Graph

Search for Another Location

Airport:

Trip Planner

Search our weather history database for the weather conditions in past years. The results will help you decide how hot, cold, wet, or windy it might be!

Date:

Astronomy

Sep. 26, 2013 Rise Set
Actual Time 7:42 AM CDT 7:38 PM CDT
Civil Twilight 7:11 AM CDT 8:09 PM CDT
Nautical Twilight 6:34 AM CDT 8:45 PM CDT
Astronomical Twilight 5:57 AM CDT 9:23 PM CDT
Moon No Moon Rise 2:59 PM CDT (9/26)
Length of Visible Light 12h 58m
Length of Day
11h 56m
Waning Gibbous, 54% of the Moon is Illuminated
Sep 26
Waning Gibbous
Sep 26
Last Quarter
Oct 4
New
Oct 11
First Quarter
Oct 18
Full

Hourly Weather History & Observations

Time (CDT) Temp. Windchill Dew Point Humidity Pressure Visibility Wind Dir Wind Speed Gust Speed Precip Events Conditions
12:15 AM 53.6 °F - 53.6 °F 100% 29.61 in 10.0 mi North 11.5 mph - 0.01 in Rain , Thunderstorm Light Thunderstorms and Rain
12:35 AM 53.6 °F - 53.6 °F 100% 29.58 in 10.0 mi NNE 11.5 mph - 0.02 in Rain , Thunderstorm Light Rain
12:55 AM 53.6 °F - 53.6 °F 100% 29.58 in 10.0 mi ENE 15.0 mph 24.2 mph 0.03 in Rain Light Rain
1:15 AM 55.4 °F - 55.4 °F 100% 29.55 in 7.0 mi NE 6.9 mph 20.7 mph 0.02 in Rain Light Rain
1:35 AM 55.4 °F - 55.4 °F 100% 29.58 in 10.0 mi WNW 4.6 mph - 0.03 in   Mostly Cloudy
1:55 AM 53.6 °F - 53.6 °F 100% 29.58 in 10.0 mi WNW 6.9 mph 16.1 mph 0.03 in Thunderstorm Overcast
2:15 AM 53.6 °F - 53.6 °F 100% 29.59 in 10.0 mi NNW 5.8 mph - N/A Rain Light Rain
2:35 AM 53.6 °F - 53.6 °F 100% 29.58 in 10.0 mi North 8.1 mph - N/A   Overcast
2:55 AM 53.6 °F - 53.6 °F 100% 29.57 in 10.0 mi NNW 6.9 mph - N/A   Mostly Cloudy
3:15 AM 53.6 °F - 53.6 °F 100% 29.57 in 10.0 mi North 6.9 mph - N/A   Mostly Cloudy
3:35 AM 53.6 °F - 53.6 °F 100% 29.58 in 10.0 mi NW 5.8 mph - N/A   Mostly Cloudy
3:55 AM 51.8 °F - 51.8 °F 100% 29.57 in 10.0 mi NNW 9.2 mph - N/A   Mostly Cloudy
4:15 AM 51.8 °F - 51.8 °F 100% 29.57 in 10.0 mi North 8.1 mph - N/A Thunderstorm Mostly Cloudy
4:35 AM 51.8 °F - 51.8 °F 100% 29.55 in 10.0 mi North 8.1 mph - N/A   Partly Cloudy
4:55 AM 51.8 °F - 51.8 °F 100% 29.57 in 10.0 mi NNW 6.9 mph - N/A   Partly Cloudy
5:15 AM 51.8 °F - 51.8 °F 100% 29.55 in 10.0 mi North 8.1 mph - N/A Rain , Thunderstorm Light Rain
5:35 AM 53.6 °F - 53.6 °F 100% 29.56 in 10.0 mi NNW 4.6 mph - N/A Rain , Thunderstorm Light Rain
5:55 AM 51.8 °F - 51.8 °F 100% 29.56 in 10.0 mi Calm Calm - N/A   Overcast
6:15 AM 51.8 °F - 51.8 °F 100% 29.56 in 10.0 mi NW 4.6 mph - N/A Rain Light Rain
6:35 AM 51.8 °F - 51.8 °F 100% 29.56 in 10.0 mi NW 5.8 mph - N/A Rain Light Rain
6:55 AM 51.8 °F - 51.8 °F 100% 29.56 in 6.0 mi NNW 4.6 mph - 0.01 in Rain Light Rain
7:15 AM 51.8 °F - 51.8 °F 100% 29.57 in 8.0 mi WNW 3.5 mph - N/A   Overcast
7:35 AM 51.8 °F - 51.8 °F 100% 29.57 in 5.0 mi NW 6.9 mph - N/A   Overcast
7:55 AM 51.8 °F - 51.8 °F 100% 29.58 in 3.0 mi NW 8.1 mph - N/A   Overcast
8:15 AM 51.8 °F - 51.8 °F 100% 29.60 in 2.5 mi WNW 9.2 mph - N/A   Overcast
8:35 AM 50.0 °F - 50.0 °F 100% 29.60 in 1.0 mi West 10.4 mph 17.3 mph N/A   Overcast
8:55 AM 50.0 °F - 50.0 °F 100% 29.60 in 4.0 mi West 15.0 mph 19.6 mph N/A   Overcast
9:15 AM 50.0 °F - 50.0 °F 100% 29.61 in 9.0 mi West 9.2 mph 20.7 mph N/A   Overcast
9:35 AM 50.0 °F - 50.0 °F 100% 29.61 in 8.0 mi West 12.7 mph 16.1 mph N/A   Overcast
9:55 AM 50.0 °F - 50.0 °F 100% 29.62 in 10.0 mi West 12.7 mph - N/A   Overcast
10:15 AM 50.0 °F - 50.0 °F 100% 29.61 in 10.0 mi West 9.2 mph - N/A   Overcast
10:35 AM 50.0 °F - 50.0 °F 100% 29.61 in 10.0 mi West 16.1 mph - N/A   Overcast
10:55 AM 53.6 °F - 53.6 °F 100% 29.62 in 10.0 mi West 15.0 mph 19.6 mph N/A   Overcast
11:15 AM 53.6 °F - 53.6 °F 100% 29.63 in 10.0 mi West 15.0 mph 21.9 mph N/A   Overcast
11:35 AM 53.6 °F - 53.6 °F 100% 29.63 in 10.0 mi West 17.3 mph 20.7 mph N/A   Overcast
11:55 AM 53.6 °F - 53.6 °F 100% 29.63 in 10.0 mi West 17.3 mph 20.7 mph N/A   Overcast
12:15 PM 53.6 °F - 53.6 °F 100% 29.64 in 10.0 mi West 17.3 mph 25.3 mph N/A   Overcast
12:35 PM 53.6 °F - 53.6 °F 100% 29.64 in 10.0 mi WSW 21.9 mph 26.5 mph N/A   Overcast
12:55 PM 51.8 °F - 51.8 °F 100% 29.65 in 10.0 mi West 21.9 mph 29.9 mph N/A   Overcast
1:15 PM 50.0 °F - 50.0 °F 100% 29.67 in 10.0 mi West 19.6 mph 28.8 mph N/A   Overcast
1:35 PM 50.0 °F - 50.0 °F 100% 29.68 in 10.0 mi West 18.4 mph 24.2 mph N/A   Overcast
1:55 PM 51.8 °F - 50.0 °F 94% 29.68 in 10.0 mi WSW 18.4 mph 25.3 mph N/A   Overcast
2:15 PM 51.8 °F - 48.2 °F 88% 29.68 in 10.0 mi WSW 19.6 mph 28.8 mph N/A   Overcast
2:35 PM 51.8 °F - 48.2 °F 88% 29.69 in 10.0 mi WSW 18.4 mph 24.2 mph N/A   Overcast
2:55 PM 53.6 °F - 48.2 °F 82% 29.69 in 10.0 mi WSW 21.9 mph 27.6 mph N/A   Overcast
3:15 PM 53.6 °F - 48.2 °F 82% 29.70 in 10.0 mi West 20.7 mph 27.6 mph N/A   Overcast
3:35 PM 53.6 °F - 48.2 °F 82% 29.70 in 10.0 mi West 21.9 mph 28.8 mph N/A   Overcast
3:55 PM 53.6 °F - 48.2 °F 82% 29.71 in 10.0 mi WSW 23.0 mph 29.9 mph N/A   Overcast
4:15 PM 55.4 °F - 48.2 °F 77% 29.71 in 10.0 mi WSW 18.4 mph 27.6 mph N/A   Overcast
4:35 PM 53.6 °F - 48.2 °F 82% 29.72 in 10.0 mi WSW 19.6 mph 24.2 mph N/A   Overcast
4:55 PM 53.6 °F - 46.4 °F 77% 29.72 in 10.0 mi WSW 21.9 mph 29.9 mph N/A   Overcast
5:15 PM 53.6 °F - 46.4 °F 77% 29.72 in 10.0 mi WSW 26.5 mph 39.1 mph N/A   Overcast
5:35 PM 53.6 °F - 44.6 °F 72% 29.73 in 10.0 mi WSW 27.6 mph 33.4 mph N/A   Overcast
5:55 PM 53.6 °F - 46.4 °F 77% 29.73 in 10.0 mi WSW 23.0 mph 28.8 mph N/A   Mostly Cloudy
6:15 PM 53.6 °F - 46.4 °F 77% 29.74 in 10.0 mi WSW 21.9 mph 29.9 mph N/A   Mostly Cloudy
6:35 PM 51.8 °F - 46.4 °F 82% 29.74 in 10.0 mi WSW 21.9 mph 34.5 mph N/A   Overcast
6:55 PM 51.8 °F - 46.4 °F 82% 29.76 in 10.0 mi WSW 18.4 mph 26.5 mph N/A   Overcast
7:15 PM 51.8 °F - 48.2 °F 88% 29.77 in 10.0 mi West 16.1 mph - N/A   Overcast
7:35 PM 50.0 °F - 46.4 °F 87% 29.78 in 10.0 mi West 20.7 mph 27.6 mph N/A   Overcast
7:55 PM 50.0 °F - 44.6 °F 82% 29.78 in 10.0 mi West 15.0 mph 24.2 mph N/A   Overcast
8:15 PM 50.0 °F - 44.6 °F 82% 29.80 in 10.0 mi West 16.1 mph 23.0 mph N/A   Overcast
8:35 PM 48.2 °F - 44.6 °F 87% 29.81 in 10.0 mi West 13.8 mph 23.0 mph N/A   Mostly Cloudy
8:55 PM 46.4 °F 42.4 °F 44.6 °F 93% 29.81 in 10.0 mi West 8.1 mph 17.3 mph N/A   Scattered Clouds
9:15 PM 46.4 °F 42.4 °F 44.6 °F 93% 29.82 in 10.0 mi West 8.1 mph - N/A   Scattered Clouds
9:35 PM 46.4 °F 41.9 °F 44.6 °F 93% 29.83 in 10.0 mi West 9.2 mph - N/A   Partly Cloudy
9:55 PM 46.4 °F 42.4 °F 46.4 °F 100% 29.83 in 10.0 mi West 8.1 mph - N/A   Mostly Cloudy
10:15 PM 46.4 °F 42.9 °F 44.6 °F 93% 29.84 in 10.0 mi West 6.9 mph - N/A   Overcast
10:35 PM 46.4 °F 40.1 °F 44.6 °F 93% 29.85 in 10.0 mi West 15.0 mph 19.6 mph N/A   Overcast
10:55 PM 46.4 °F 40.7 °F 42.8 °F 87% 29.85 in 10.0 mi WNW 12.7 mph 21.9 mph N/A   Mostly Cloudy
11:15 PM 46.4 °F 42.4 °F 42.8 °F 87% 29.88 in 10.0 mi WNW 8.1 mph 17.3 mph N/A   Overcast
11:35 PM 46.4 °F 41.1 °F 42.8 °F 87% 29.88 in 10.0 mi WNW 11.5 mph 19.6 mph N/A   Overcast
11:55 PM 46.4 °F 40.1 °F 42.8 °F 87% 29.88 in 10.0 mi West 15.0 mph 19.6 mph N/A   Partly Cloudy